User: anonymous   Login
Location: Unspecified
(0.0000°N, 0.0000°E)
Time: 10:47:57
(UTC+02:00)
Language:

Delta 2 Rocket - Orbit

View from above orbital plane
View from above orbital plane
View from above satellite
View from above satellite

Ground track
Ground track

The orbit data is extracted from the following two-line orbital elements,

1 20453U 90008B   15142.01542013  .00004974  00000-0  30231-3 0  9996
2 20453 035.6268 346.6101 0306132 007.8298 352.7050 14.78534920335866
Epoch (UTC): 22 May 2015 00:22:12
Eccentricity: 0.0306132
inclination: 35.6268°
perigee height: 419 km
apogee height: 848 km
right ascension of ascending node: 346.6101°
argument of perigee: 7.8298°
revolutions per day: 14.78534920
mean anomaly at epoch: 352.7050°
orbit number at epoch: 33586

The dashed part of the orbit path shows where the satellite is in the earth's shadow,  

DLR